CW7364 Weather Reports


time (UTC)temp
C
wind
direction
speed
KPH
gust
KPH
rain 1hr
cm
rain 24hr
cm
rain mn
cm
humidity
%
barometer
mb
20260509201037 30 180 3.2 9.7 0.00 0.00 0.00 49 1008.5
20260509200036 30 68 4.8 11.3 0.00 0.00 0.00 49 1008.6
20260509195016 30 90 6.4 12.9 0.00 0.00 0.00 50 1008.7
20260509194018 30 113 1.6 6.4 0.00 0.00 0.00 50 1008.8
20260509193016 30 68 6.4 14.5 0.00 0.00 0.00 53 1009.0
20260509192017 30 23 4.8 11.3 0.00 0.00 0.00 54 1009.1
20260509191057 30 68 3.2 8.0 0.00 0.00 0.00 54 1009.2
20260509190016 29 68 6.4 14.5 0.00 0.00 0.00 56 1009.3
20260509185036 29 90 6.4 14.5 0.00 0.00 0.00 57 1009.2
20260509184016 29 135 3.2 12.9 0.00 0.00 0.00 56 1009.3
20260509183016 29 90 4.8 12.9 0.00 0.00 0.00 56 1009.4
20260509182016 29 23 1.6 8.0 0.00 0.00 0.00 61 1009.6
20260509181016 28 68 6.4 14.5 0.00 0.00 0.00 59 1009.7
20260509180016 28 68 6.4 14.5 0.00 0.00 0.00 60 1009.7
20260509175016 28 45 6.4 14.5 0.00 0.00 0.00 62 1009.8
20260509174016 28 293 6.4 12.9 0.00 0.00 0.00 63 1009.9
20260509173016 27 293 3.2 12.9 0.00 0.00 0.00 64 1010.0
20260509172016 27 23 8.0 14.5 0.00 0.00 0.00 63 1010.2
20260509171016 27 315 6.4 14.5 0.00 0.00 0.00 63 1010.3
20260509170016 27 293 8.0 16.1 0.00 0.00 0.00 64 1010.3
20260509165016 27 293 3.2 8.0 0.00 0.00 0.00 64 1010.4
20260509164016 27 293 8.0 16.1 0.00 0.00 0.00 63 1010.4
20260509163016 27 293 4.8 17.7 0.00 0.00 0.00 65 1010.6
20260509162015 26 293 4.8 14.5 0.00 0.00 0.00 65 1010.6
20260509161016 26 293 8.0 12.9 0.00 0.00 0.00 66 1010.6
20260509160016 25 315 6.4 14.5 0.00 0.00 0.00 67 1010.5
20260509155015 25 315 6.4 14.5 0.00 0.00 0.00 67 1010.6
20260509154016 25 293 4.8 12.9 0.00 0.00 0.00 67 1010.4
20260509153016 25 270 4.8 11.3 0.00 0.00 0.00 67 1010.5
20260509152015 24 293 6.4 12.9 0.00 0.00 0.00 69 1010.4
20260509151015 23 293 8.0 16.1 0.00 0.00 0.00 69 1010.4
20260509150015 23 270 6.4 12.9 0.00 0.00 0.00 70 1010.5
20260509145015 23 270 4.8 11.3 0.00 0.00 0.00 72 1010.5
20260509144035 22 293 6.4 12.9 0.00 0.00 0.00 74 1010.4
20260509143015 22 293 6.4 12.9 0.00 0.00 0.00 78 1010.4
20260509142015 22 293 4.8 9.7 0.00 0.00 0.00 81 1010.4
20260509141035 22 293 6.4 11.3 0.00 0.00 0.00 81 1010.5
20260509140015 21 270 4.8 6.4 0.00 0.00 0.00 82 1010.5
20260509135035 21 293 4.8 11.3 0.00 0.00 0.00 83 1010.5
20260509134037 21 293 4.8 11.3 0.00 0.00 0.00 85 1010.4
20260509133017 20 270 4.8 9.7 0.00 0.00 0.00 86 1010.3
20260509132017 19 293 6.4 12.9 0.00 0.00 0.00 88 1010.3
20260509131017 18 270 6.4 11.3 0.00 0.00 0.00 89 1010.3
20260509130017 18 293 3.2 6.4 0.00 0.00 0.00 90 1010.2
20260509125017 18 270 4.8 6.4 0.00 0.00 0.00 90 1010.2
20260509124017 18 293 3.2 4.8 0.00 0.00 0.00 91 1010.2
20260509123017 17 0.0 4.8 0.00 0.00 0.00 91 1010.1
20260509122017 17 0.0 0.0 0.00 0.00 0.00 91 1010.0
20260509121017 17 0.0 0.0 0.00 0.03 0.00 91 1009.9
20260509120017 17 0.0 0.0 0.00 0.05 0.00 91 1009.8
20260509115017 17 0.0 0.0 0.00 0.05 0.00 90 1009.8
20260509114017 17 0.0 0.0 0.00 0.05 0.00 91 1009.6
20260509113016 17 0.0 0.0 0.00 0.08 0.00 90 1009.8
20260509112017 18 0.0 0.0 0.00 0.10 0.00 91 1009.5
20260509111037 18 0.0 0.0 0.00 0.10 0.00 91 1009.5
20260509110017 17 0.0 0.0 0.00 0.10 0.00 91 1009.4
20260509105037 17 0.0 3.2 0.00 0.10 0.00 90 1009.4
20260509104017 18 270 1.6 4.8 0.00 0.10 0.00 90 1009.0
20260509103016 18 0.0 0.0 0.00 0.10 0.00 90 1008.9
20260509102017 18 0.0 0.0 0.00 0.10 0.00 90 1009.0
20260509101016 18 270 1.6 4.8 0.00 0.13 0.00 90 1008.8
20260509100016 19 23 4.8 16.1 0.00 0.13 0.00 90 1008.3
20260509095016 19 23 8.0 17.7 0.00 0.13 0.00 90 1008.1
20260509094016 19 45 9.7 19.3 0.00 0.13 0.00 89 1007.7
20260509093016 19 23 9.7 17.7 0.00 0.13 0.00 89 1007.7
20260509092037 20 45 11.3 20.9 0.00 0.13 0.00 89 1007.6
20260509091037 20 23 9.7 19.3 0.00 0.13 0.00 88 1007.6
20260509090036 20 23 11.3 20.9 0.00 0.13 0.00 88 1007.5
20260509085016 20 45 14.5 24.1 0.00 0.13 0.00 87 1007.5
20260509084016 20 23 12.9 24.1 0.00 0.13 0.00 86 1007.5
20260509083016 20 23 8.0 17.7 0.00 0.13 0.00 84 1007.8
20260509082016 20 270 6.4 14.5 0.00 0.13 0.00 83 1008.0
20260509081016 21 315 8.0 19.3 0.00 0.13 0.00 81 1007.9
20260509080016 21 0 11.3 22.5 0.00 0.13 0.00 77 1007.6
20260509075036 21 0 9.7 24.1 0.00 0.13 0.00 77 1007.3
20260509074036 21 135 1.6 4.8 0.00 0.13 0.00 79 1006.6
20260509073016 21 203 6.4 9.7 0.00 0.13 0.00 81 1007.0
20260509072016 21 203 1.6 4.8 0.00 0.13 0.00 84 1007.1
20260509071016 21 113 12.9 20.9 0.00 0.13 0.00 85 1007.2
20260509070016 20 135 6.4 17.7 0.00 0.13 0.00 87 1007.1
20260509065016 20 180 8.0 14.5 0.00 0.13 0.00 89 1008.5
20260509064036 20 203 8.0 14.5 0.00 0.13 0.00 89 1009.0
20260509063036 20 203 4.8 9.7 0.00 0.13 0.00 89 1009.1
20260509062016 20 203 4.8 8.0 0.00 0.13 0.00 89 1009.5
20260509061016 20 203 3.2 6.4 0.00 0.13 0.00 89 1009.9
20260509060015 20 225 4.8 8.0 0.00 0.13 0.00 89 1010.4
20260509055016 20 225 3.2 11.3 0.00 0.13 0.00 89 1010.5
20260509054015 20 225 1.6 4.8 0.00 0.13 0.00 88 1010.1
20260509053016 20 203 3.2 4.8 0.00 0.13 0.00 88 1010.1
20260509052016 20 203 3.2 4.8 0.00 0.13 0.00 88 1010.0
20260509051015 20 203 1.6 6.4 0.00 0.13 0.00 87 1010.0
20260509050036 20 0.0 3.2 0.00 0.13 0.13 87 1010.3
20260509045016 20 180 8.0 12.9 0.00 0.13 0.13 87 1010.1
20260509044016 20 180 4.8 6.4 0.00 0.13 0.13 87 1010.8
20260509043016 20 0.0 3.2 0.00 0.13 0.13 88 1011.3
20260509042036 20 23 4.8 9.7 0.00 0.13 0.13 88 1011.5
20260509041016 20 293 6.4 16.1 0.00 0.13 0.13 89 1011.5
20260509040016 20 113 1.6 6.4 0.00 0.13 0.13 87 1010.1
20260509035016 20 0.0 0.0 0.00 0.13 0.13 87 1009.1
20260509034036 20 0.0 4.8 0.00 0.13 0.13 87 1009.3
20260509033016 20 135 3.2 6.4 0.00 0.13 0.13 87 1008.9
20260509032036 20 158 6.4 11.3 0.00 0.13 0.13 86 1008.7
20260509031016 20 135 8.0 12.9 0.00 0.13 0.13 86 1008.7
20260509030016 20 113 9.7 16.1 0.00 0.13 0.13 86 1008.8
20260509025016 20 113 9.7 16.1 0.00 0.13 0.13 86 1008.6
20260509024016 20 90 9.7 16.1 0.00 0.13 0.13 86 1008.4
20260509023016 20 68 9.7 17.7 0.00 0.13 0.13 85 1008.8
20260509022015 20 68 8.0 14.5 0.00 0.13 0.13 84 1008.5
20260509021035 21 158 3.2 8.0 0.00 0.13 0.13 84 1007.7
20260509020016 21 158 3.2 9.7 0.00 0.13 0.13 83 1007.1
20260509015016 21 158 8.0 16.1 0.00 0.13 0.13 83 1006.5
20260509014035 21 158 6.4 12.9 0.00 0.13 0.13 82 1006.5
20260509013015 21 180 9.7 16.1 0.00 0.13 0.13 81 1006.3
20260509012016 21 180 8.0 14.5 0.00 0.13 0.13 81 1006.4
20260509011015 22 180 8.0 12.9 0.00 0.13 0.13 79 1006.8
20260509010015 22 180 8.0 16.1 0.00 0.13 0.13 79 1007.0
20260509005015 22 180 8.0 12.9 0.00 0.13 0.13 78 1007.2
20260509004015 22 180 8.0 14.5 0.00 0.13 0.13 77 1007.3
20260509003015 23 180 8.0 14.5 0.00 0.13 0.13 76 1007.3
20260509002017 23 203 9.7 16.1 0.00 0.13 0.13 75 1007.2
20260509001017 23 180 9.7 19.3 0.00 0.13 0.13 74 1007.0
20260509000017 23 158 9.7 16.1 0.00 0.13 0.13 73 1007.0
20260508235037 23 180 8.0 16.1 0.00 0.13 0.13 72 1006.9
20260508234017 23 180 9.7 16.1 0.00 0.13 0.13 72 1006.8
20260508233017 24 180 9.7 16.1 0.00 0.13 0.13 71 1006.9
20260508232017 24 180 9.7 19.3 0.00 0.13 0.13 70 1007.0
20260508231017 25 180 9.7 16.1 0.00 0.13 0.13 71 1007.1
20260508230037 25 180 11.3 19.3 0.00 0.13 0.13 70 1007.2
20260508225017 25 180 9.7 17.7 0.00 0.13 0.13 71 1007.3
20260508224017 25 180 9.7 20.9 0.00 0.13 0.13 70 1007.3
20260508223017 25 180 11.3 19.3 0.00 0.13 0.13 70 1007.3
20260508222017 25 180 8.0 19.3 0.00 0.13 0.13 70 1007.3
20260508221017 25 158 8.0 14.5 0.00 0.13 0.13 71 1007.3
20260508220017 25 158 9.7 19.3 0.00 0.13 0.13 70 1007.3
20260508215017 25 158 9.7 17.7 0.00 0.13 0.13 72 1007.4
20260508214016 25 158 9.7 19.3 0.00 0.13 0.13 70 1007.6
20260508213017 24 180 9.7 17.7 0.00 0.13 0.13 71 1007.5
20260508212017 24 135 11.3 17.7 0.00 0.13 0.13 71 1007.7
20260508211016 24 180 11.3 17.7 0.00 0.13 0.13 71 1007.8
20260508210017 24 180 11.3 20.9 0.00 0.13 0.13 70 1007.8
20260508205016 23 180 9.7 17.7 0.00 0.13 0.13 71 1008.2
20260508204016 23 180 11.3 17.7 0.00 0.13 0.13 71 1008.3
20260508203016 23 203 11.3 20.9 0.00 0.13 0.13 70 1008.6
20260508202016 23 180 16.1 24.1 0.00 0.13 0.13 71 1008.7